| time (UTC) | temp F | wind direction | speed MPH | gust MPH | rain 1hr in | rain 24hr in | rain mn in | humidity % | barometer mb |
| 20260831111540 | 54 | 216 | 0.0 | 0.0 | 0.00 | 0.00 | 0.00 | 92 | 1015.2 |
| 20260831111036 | 54 | 216 | 0.0 | 0.0 | 0.00 | 0.00 | 0.00 | 92 | 1015.2 |
| 20260831110531 | 54 | 212 | 0.0 | 0.0 | 0.00 | 0.00 | 0.00 | 91 | 1015.2 |
| 20260831110026 | 54 | 211 | 0.0 | 0.0 | 0.00 | 0.00 | 0.00 | 91 | 1015.2 |
| 20260831105519 | 54 | 213 | 0.0 | 0.0 | 0.00 | 0.00 | 0.00 | 91 | 1015.2 |
| 20260831105014 | 54 | 213 | 0.0 | 0.0 | 0.00 | 0.00 | 0.00 | 91 | 1015.2 |
| 20260831104510 | 54 | 213 | 0.0 | 0.0 | 0.00 | 0.00 | 0.00 | 91 | 1015.2 |
| 20260831104006 | 54 | 216 | 0.0 | 0.0 | 0.00 | 0.00 | 0.00 | 91 | 1015.2 |
| 20260831103501 | 54 | 214 | 0.0 | 0.0 | 0.00 | 0.00 | 0.00 | 91 | 1015.2 |
| 20260831102957 | 54 | 213 | 0.0 | 0.0 | 0.00 | 0.00 | 0.00 | 90 | 1015.2 |
| 20260831102456 | 54 | 206 | 0.0 | 0.0 | 0.00 | 0.00 | 0.00 | 90 | 1015.5 |
| 20260831101952 | 54 | 213 | 0.0 | 0.0 | 0.00 | 0.00 | 0.00 | 90 | 1015.2 |
| 20260831101446 | 55 | 214 | 0.0 | 0.0 | 0.00 | 0.00 | 0.00 | 89 | 1015.2 |
| 20260831100943 | 55 | 215 | 0.0 | 0.0 | 0.00 | 0.00 | 0.00 | 90 | 1015.2 |
| 20260831100439 | 55 | 214 | 0.0 | 0.0 | 0.00 | 0.00 | 0.00 | 89 | 1015.5 |
| 20260831095933 | 55 | 215 | 0.0 | 0.0 | 0.00 | 0.00 | 0.00 | 89 | 1015.2 |
| 20260831095433 | 55 | 212 | 0.0 | 0.0 | 0.00 | 0.00 | 0.00 | 89 | 1015.5 |
| 20260831094928 | 55 | 212 | 0.0 | 0.0 | 0.00 | 0.00 | 0.00 | 89 | 1015.5 |
| 20260831094424 | 55 | 215 | 0.0 | 0.0 | 0.00 | 0.00 | 0.00 | 88 | 1015.5 |
| 20260831093920 | 56 | 213 | 0.0 | 0.0 | 0.00 | 0.00 | 0.00 | 88 | 1015.5 |
| 20260831093414 | 56 | 213 | 0.0 | 0.0 | 0.00 | 0.00 | 0.00 | 88 | 1015.5 |
| 20260831092911 | 56 | 215 | 0.0 | 0.0 | 0.00 | 0.00 | 0.00 | 88 | 1015.5 |
| 20260831092407 | 56 | 215 | 0.0 | 0.0 | 0.00 | 0.00 | 0.00 | 88 | 1015.9 |
| 20260831091901 | 56 | 216 | 0.0 | 0.0 | 0.00 | 0.00 | 0.00 | 88 | 1015.9 |
| 20260831091357 | 56 | 213 | 0.0 | 0.0 | 0.00 | 0.00 | 0.00 | 87 | 1015.9 |
| 20260831090852 | 56 | 210 | 0.0 | 0.0 | 0.00 | 0.00 | 0.00 | 87 | 1015.9 |
| 20260831090348 | 57 | 210 | 0.0 | 0.0 | 0.00 | 0.00 | 0.00 | 87 | 1015.9 |
| 20260831085845 | 57 | 210 | 0.0 | 0.0 | 0.00 | 0.00 | 0.00 | 86 | 1016.2 |
| 20260831085344 | 57 | 212 | 0.0 | 0.0 | 0.00 | 0.00 | 0.00 | 86 | 1016.2 |
| 20260831084844 | 57 | 214 | 0.0 | 0.0 | 0.00 | 0.00 | 0.00 | 85 | 1016.2 |
| 20260831084340 | 57 | 214 | 0.0 | 0.0 | 0.00 | 0.00 | 0.00 | 84 | 1015.9 |
| 20260831083837 | 58 | 216 | 0.0 | 0.0 | 0.00 | 0.00 | 0.00 | 84 | 1016.2 |
| 20260831083332 | 58 | 215 | 0.0 | 0.0 | 0.00 | 0.00 | 0.00 | 83 | 1016.2 |
| 20260831082830 | 58 | 216 | 0.0 | 0.0 | 0.00 | 0.00 | 0.00 | 83 | 1015.9 |
| 20260831082326 | 59 | 216 | 0.0 | 0.0 | 0.00 | 0.00 | 0.00 | 83 | 1016.5 |
| 20260831081821 | 59 | 217 | 0.0 | 0.0 | 0.00 | 0.00 | 0.00 | 82 | 1016.2 |
| 20260831081317 | 59 | 219 | 0.0 | 0.0 | 0.00 | 0.00 | 0.00 | 82 | 1016.2 |
| 20260831080812 | 59 | 221 | 0.0 | 0.0 | 0.00 | 0.00 | 0.00 | 82 | 1016.5 |
| 20260831080307 | 59 | 226 | 0.0 | 1.0 | 0.00 | 0.00 | 0.00 | 82 | 1016.2 |
| 20260831075803 | 59 | 215 | 0.0 | 0.0 | 0.00 | 0.00 | 0.00 | 82 | 1016.9 |
| 20260831075258 | 59 | 216 | 0.0 | 0.0 | 0.00 | 0.00 | 0.00 | 81 | 1016.5 |
| 20260831074758 | 59 | 221 | 0.0 | 1.0 | 0.00 | 0.00 | 0.00 | 81 | 1016.9 |
| 20260831074251 | 59 | 221 | 1.0 | 1.0 | 0.00 | 0.00 | 0.00 | 81 | 1016.5 |
| 20260831073748 | 60 | 223 | 0.0 | 1.0 | 0.00 | 0.00 | 0.00 | 80 | 1016.5 |
| 20260831073246 | 60 | 225 | 1.0 | 1.0 | 0.00 | 0.00 | 0.00 | 80 | 1016.5 |
| 20260831072741 | 60 | 216 | 0.0 | 0.0 | 0.00 | 0.00 | 0.00 | 80 | 1016.5 |
| 20260831072238 | 60 | 216 | 0.0 | 0.0 | 0.00 | 0.00 | 0.00 | 79 | 1016.5 |
| 20260831071738 | 60 | 220 | 0.0 | 1.0 | 0.00 | 0.00 | 0.00 | 78 | 1016.5 |
| 20260831071233 | 61 | 219 | 0.0 | 0.0 | 0.00 | 0.00 | 0.00 | 78 | 1016.9 |
| 20260831070732 | 61 | 218 | 0.0 | 0.0 | 0.00 | 0.00 | 0.00 | 78 | 1016.9 |
| 20260831070226 | 61 | 217 | 0.0 | 1.0 | 0.00 | 0.00 | 0.00 | 77 | 1016.9 |
| 20260831065725 | 61 | 218 | 0.0 | 0.0 | 0.00 | 0.00 | 0.00 | 77 | 1016.9 |
| 20260831065224 | 61 | 215 | 0.0 | 0.0 | 0.00 | 0.00 | 0.00 | 77 | 1017.2 |
| 20260831064719 | 62 | 217 | 0.0 | 0.0 | 0.00 | 0.00 | 0.00 | 76 | 1017.2 |
| 20260831064214 | 62 | 220 | 0.0 | 1.0 | 0.00 | 0.00 | 0.00 | 76 | 1017.2 |
| 20260831063710 | 62 | 216 | 0.0 | 0.0 | 0.00 | 0.00 | 0.00 | 75 | 1017.2 |
| 20260831063205 | 62 | 217 | 0.0 | 0.0 | 0.00 | 0.00 | 0.00 | 75 | 1017.2 |
| 20260831062705 | 62 | 230 | 1.0 | 1.0 | 0.00 | 0.00 | 0.00 | 74 | 1017.2 |
| 20260831062205 | 63 | 207 | 0.0 | 0.0 | 0.00 | 0.00 | 0.00 | 74 | 1017.2 |
| 20260831061703 | 63 | 230 | 0.0 | 1.0 | 0.00 | 0.00 | 0.00 | 73 | 1017.2 |
| 20260831061159 | 63 | 159 | 1.0 | 2.0 | 0.00 | 0.00 | 0.00 | 73 | 1017.2 |
| 20260831060655 | 63 | 224 | 1.0 | 2.0 | 0.00 | 0.00 | 0.00 | 72 | 1017.2 |
| 20260831060154 | 63 | 229 | 0.0 | 1.0 | 0.00 | 0.00 | 0.00 | 72 | 1017.2 |
| 20260831055654 | 64 | 260 | 1.0 | 1.0 | 0.00 | 0.00 | 0.00 | 71 | 1017.2 |
| 20260831055149 | 64 | 213 | 0.0 | 0.0 | 0.00 | 0.00 | 0.00 | 70 | 1017.2 |
| 20260831054644 | 64 | 215 | 0.0 | 0.0 | 0.00 | 0.00 | 0.00 | 70 | 1017.2 |
| 20260831054143 | 64 | 217 | 1.0 | 2.0 | 0.00 | 0.00 | 0.00 | 69 | 1017.2 |
| 20260831053638 | 64 | 228 | 2.0 | 2.0 | 0.00 | 0.00 | 0.00 | 68 | 1017.6 |
| 20260831053137 | 64 | 221 | 1.0 | 1.0 | 0.00 | 0.00 | 0.00 | 68 | 1017.6 |
| 20260831052636 | 65 | 203 | 0.0 | 1.0 | 0.00 | 0.00 | 0.00 | 68 | 1017.6 |
| 20260831052135 | 65 | 260 | 1.0 | 2.0 | 0.00 | 0.00 | 0.00 | 67 | 1017.6 |
| 20260831051634 | 65 | 348 | 4.0 | 6.0 | 0.00 | 0.00 | 0.00 | 66 | 1017.6 |
| 20260831051127 | 65 | 260 | 1.0 | 2.0 | 0.00 | 0.00 | 0.00 | 66 | 1017.6 |
| 20260831050621 | 65 | 233 | 1.0 | 1.0 | 0.00 | 0.00 | 0.00 | 66 | 1017.9 |
| 20260831050115 | 66 | 216 | 2.0 | 3.0 | 0.00 | 0.00 | 0.00 | 65 | 1017.9 |
| 20260831045614 | 66 | 5 | 4.0 | 5.0 | 0.00 | 0.00 | 0.00 | 65 | 1017.6 |
| 20260831045109 | 66 | 294 | 2.0 | 2.0 | 0.00 | 0.00 | 0.00 | 64 | 1017.9 |
| 20260831044604 | 66 | 254 | 1.0 | 2.0 | 0.00 | 0.00 | 0.00 | 64 | 1017.9 |
| 20260831044059 | 67 | 225 | 3.0 | 5.0 | 0.00 | 0.00 | 0.00 | 64 | 1017.9 |
| 20260831043555 | 67 | 260 | 1.0 | 2.0 | 0.00 | 0.00 | 0.00 | 63 | 1017.9 |
| 20260831043051 | 67 | 4 | 6.0 | 8.0 | 0.00 | 0.00 | 0.00 | 63 | 1017.9 |
| 20260831042550 | 67 | 351 | 2.0 | 3.0 | 0.00 | 0.00 | 0.00 | 62 | 1017.9 |
| 20260831042045 | 67 | 209 | 1.0 | 1.0 | 0.00 | 0.00 | 0.00 | 62 | 1017.6 |
| 20260831041540 | 68 | 1 | 3.0 | 5.0 | 0.00 | 0.00 | 0.00 | 61 | 1017.9 |
| 20260831041038 | 68 | 246 | 1.0 | 1.0 | 0.00 | 0.00 | 0.00 | 61 | 1017.9 |
| 20260831040533 | 68 | 356 | 4.0 | 5.0 | 0.00 | 0.00 | 0.00 | 61 | 1017.9 |
| 20260831040028 | 68 | 228 | 1.0 | 1.0 | 0.00 | 0.00 | 0.00 | 60 | 1017.9 |
| 20260831035525 | 68 | 212 | 1.0 | 2.0 | 0.00 | 0.00 | 0.00 | 60 | 1017.9 |
| 20260831035021 | 68 | 215 | 1.0 | 1.0 | 0.00 | 0.00 | 0.00 | 60 | 1017.9 |
| 20260831034515 | 68 | 235 | 1.0 | 1.0 | 0.00 | 0.00 | 0.00 | 59 | 1017.9 |
| 20260831034010 | 69 | 188 | 1.0 | 2.0 | 0.00 | 0.00 | 0.00 | 59 | 1017.6 |
| 20260831033506 | 69 | 262 | 2.0 | 2.0 | 0.00 | 0.00 | 0.00 | 58 | 1017.6 |
| 20260831033001 | 69 | 19 | 1.0 | 2.0 | 0.00 | 0.00 | 0.00 | 58 | 1017.9 |
| 20260831032501 | 69 | 227 | 1.0 | 2.0 | 0.00 | 0.00 | 0.00 | 58 | 1017.6 |
| 20260831031956 | 69 | 207 | 3.0 | 3.0 | 0.00 | 0.00 | 0.00 | 58 | 1017.9 |
| 20260831031455 | 70 | 238 | 3.0 | 3.0 | 0.00 | 0.00 | 0.00 | 58 | 1017.9 |
| 20260831030955 | 70 | 20 | 1.0 | 2.0 | 0.00 | 0.00 | 0.00 | 57 | 1017.9 |
| 20260831030454 | 70 | 217 | 1.0 | 2.0 | 0.00 | 0.00 | 0.00 | 58 | 1017.6 |
| 20260831025952 | 71 | 35 | 1.0 | 2.0 | 0.00 | 0.00 | 0.00 | 58 | 1017.9 |
| 20260831025452 | 71 | 212 | 3.0 | 3.0 | 0.00 | 0.00 | 0.00 | 58 | 1017.9 |
| 20260831024948 | 71 | 205 | 3.0 | 3.0 | 0.00 | 0.00 | 0.00 | 57 | 1017.9 |
| 20260831024443 | 71 | 189 | 2.0 | 5.0 | 0.00 | 0.00 | 0.00 | 57 | 1017.6 |
| 20260831023942 | 71 | 247 | 2.0 | 2.0 | 0.00 | 0.00 | 0.00 | 57 | 1017.9 |
| 20260831023440 | 72 | 16 | 4.0 | 6.0 | 0.00 | 0.00 | 0.00 | 56 | 1017.6 |
| 20260831022936 | 72 | 38 | 2.0 | 2.0 | 0.00 | 0.00 | 0.00 | 56 | 1017.9 |
| 20260831022435 | 72 | 186 | 1.0 | 3.0 | 0.00 | 0.00 | 0.00 | 55 | 1017.6 |
| 20260831021930 | 72 | 24 | 4.0 | 5.0 | 0.00 | 0.00 | 0.00 | 55 | 1017.9 |
| 20260831021429 | 72 | 345 | 1.0 | 2.0 | 0.00 | 0.00 | 0.00 | 55 | 1017.9 |
| 20260831020925 | 73 | 250 | 3.0 | 3.0 | 0.00 | 0.00 | 0.00 | 54 | 1017.6 |
| 20260831020425 | 73 | 208 | 0.0 | 1.0 | 0.00 | 0.00 | 0.00 | 54 | 1017.6 |
| 20260831015920 | 73 | 276 | 2.0 | 2.0 | 0.00 | 0.00 | 0.00 | 54 | 1017.6 |
| 20260831015416 | 73 | 213 | 1.0 | 1.0 | 0.00 | 0.00 | 0.00 | 54 | 1017.9 |
| 20260831014911 | 73 | 13 | 1.0 | 1.0 | 0.00 | 0.00 | 0.00 | 54 | 1017.9 |
| 20260831014410 | 73 | 33 | 3.0 | 5.0 | 0.00 | 0.00 | 0.00 | 53 | 1017.6 |
| 20260831013906 | 73 | 21 | 3.0 | 8.0 | 0.00 | 0.00 | 0.00 | 53 | 1018.2 |
| 20260831013401 | 73 | 34 | 5.0 | 9.0 | 0.00 | 0.00 | 0.00 | 53 | 1018.2 |
| 20260831012856 | 73 | 15 | 3.0 | 9.0 | 0.00 | 0.00 | 0.00 | 53 | 1018.2 |
| 20260831012351 | 74 | 10 | 3.0 | 3.0 | 0.00 | 0.00 | 0.00 | 53 | 1017.9 |
| 20260831011846 | 74 | 314 | 8.0 | 10.0 | 0.00 | 0.00 | 0.00 | 52 | 1017.9 |
| 20260831011340 | 74 | 34 | 2.0 | 5.0 | 0.00 | 0.00 | 0.00 | 53 | 1018.2 |
| 20260831010836 | 74 | 300 | 9.0 | 11.0 | 0.00 | 0.00 | 0.00 | 52 | 1017.9 |
| 20260831010335 | 74 | 349 | 7.0 | 9.0 | 0.00 | 0.00 | 0.00 | 51 | 1018.2 |
| 20260831005832 | 74 | 199 | 3.0 | 8.0 | 0.00 | 0.00 | 0.00 | 51 | 1018.2 |
| 20260831005328 | 75 | 7 | 1.0 | 2.0 | 0.00 | 0.00 | 0.00 | 51 | 1018.2 |
| 20260831004827 | 75 | 235 | 0.0 | 0.0 | 0.00 | 0.00 | 0.00 | 51 | 1018.6 |
| 20260831004324 | 75 | 18 | 5.0 | 7.0 | 0.00 | 0.00 | 0.00 | 50 | 1018.6 |
| 20260831003819 | 76 | 228 | 6.0 | 11.0 | 0.00 | 0.00 | 0.00 | 49 | 1018.6 |
| 20260831003316 | 76 | 253 | 0.0 | 0.0 | 0.00 | 0.00 | 0.00 | 49 | 1018.6 |
| 20260831002815 | 75 | 340 | 0.0 | 0.0 | 0.00 | 0.00 | 0.00 | 49 | 1018.6 |
| 20260831002314 | 76 | 204 | 2.0 | 6.0 | 0.00 | 0.00 | 0.00 | 50 | 1018.9 |
| 20260831001810 | 77 | 355 | 3.0 | 3.0 | 0.00 | 0.00 | 0.00 | 48 | 1018.6 |
| 20260831001305 | 77 | 342 | 3.0 | 5.0 | 0.00 | 0.00 | 0.00 | 47 | 1018.6 |
| 20260831000803 | 77 | 183 | 4.0 | 7.0 | 0.00 | 0.00 | 0.00 | 48 | 1018.9 |
| 20260831000303 | 76 | 135 | 0.0 | 0.0 | 0.00 | 0.00 | 0.00 | 48 | 1018.9 |
| 20260830235800 | 76 | 5 | 0.0 | 0.0 | 0.00 | 0.00 | 0.00 | 48 | 1018.9 |
| 20260830235255 | 78 | 357 | 0.0 | 2.0 | 0.00 | 0.00 | 0.00 | 47 | 1018.9 |
| 20260830234750 | 77 | 353 | 1.0 | 6.0 | 0.00 | 0.00 | 0.00 | 46 | 1018.9 |
| 20260830234247 | 77 | 358 | 1.0 | 6.0 | 0.00 | 0.00 | 0.00 | 47 | 1018.9 |
| 20260830233742 | 77 | 206 | 1.0 | 3.0 | 0.00 | 0.00 | 0.00 | 47 | 1019.3 |
| 20260830233237 | 78 | 28 | 0.0 | 0.0 | 0.00 | 0.00 | 0.00 | 45 | 1019.6 |
| 20260830232732 | 79 | 351 | 6.0 | 8.0 | 0.00 | 0.00 | 0.00 | 44 | 1019.3 |
| 20260830232229 | 78 | 201 | 0.0 | 0.0 | 0.00 | 0.00 | 0.00 | 45 | 1019.3 |
| 20260830231725 | 78 | 203 | 0.0 | 1.0 | 0.00 | 0.00 | 0.00 | 45 | 1019.3 |
| 20260830231224 | 77 | 66 | 3.0 | 3.0 | 0.00 | 0.00 | 0.00 | 45 | 1019.6 |
| 20260830230719 | 77 | 254 | 1.0 | 3.0 | 0.00 | 0.00 | 0.00 | 45 | 1019.6 |
| 20260830230214 | 76 | 289 | 1.0 | 2.0 | 0.00 | 0.00 | 0.00 | 46 | 1019.6 |
| 20260830225709 | 77 | 27 | 0.0 | 1.0 | 0.00 | 0.00 | 0.00 | 46 | 1019.3 |
| 20260830225204 | 77 | 250 | 0.0 | 0.0 | 0.00 | 0.00 | 0.00 | 46 | 1019.6 |
| 20260830224703 | 77 | 5 | 4.0 | 6.0 | 0.00 | 0.00 | 0.00 | 45 | 1019.6 |
| 20260830224159 | 77 | 215 | 0.0 | 0.0 | 0.00 | 0.00 | 0.00 | 46 | 1019.6 |
| 20260830223655 | 78 | 260 | 0.0 | 0.0 | 0.00 | 0.00 | 0.00 | 43 | 1019.9 |
| 20260830223150 | 77 | 203 | 1.0 | 2.0 | 0.00 | 0.00 | 0.00 | 45 | 1019.9 |
| 20260830222644 | 77 | 218 | 1.0 | 1.0 | 0.00 | 0.00 | 0.00 | 44 | 1019.9 |
| 20260830222140 | 76 | 247 | 3.0 | 5.0 | 0.00 | 0.00 | 0.00 | 45 | 1020.3 |
| 20260830221635 | 76 | 280 | 5.0 | 6.0 | 0.00 | 0.00 | 0.00 | 45 | 1020.3 |
| 20260830221131 | 75 | 219 | 0.0 | 1.0 | 0.00 | 0.00 | 0.00 | 46 | 1020.3 |
| 20260830220626 | 77 | 294 | 1.0 | 5.0 | 0.00 | 0.00 | 0.00 | 45 | 1020.6 |
| 20260830220120 | 77 | 209 | 0.0 | 1.0 | 0.00 | 0.00 | 0.00 | 44 | 1020.6 |
| 20260830215619 | 76 | 186 | 0.0 | 1.0 | 0.00 | 0.00 | 0.00 | 44 | 1020.6 |
| 20260830215114 | 77 | 339 | 6.0 | 7.0 | 0.00 | 0.00 | 0.00 | 42 | 1020.9 |
| 20260830214609 | 75 | 206 | 0.0 | 0.0 | 0.00 | 0.00 | 0.00 | 46 | 1020.9 |
| 20260830214103 | 75 | 289 | 4.0 | 8.0 | 0.00 | 0.00 | 0.00 | 45 | 1020.6 |
| 20260830213603 | 76 | 216 | 0.0 | 2.0 | 0.00 | 0.00 | 0.00 | 46 | 1020.9 |
| 20260830213059 | 75 | 263 | 0.0 | 0.0 | 0.00 | 0.00 | 0.00 | 45 | 1020.9 |
| 20260830212554 | 74 | 228 | 0.0 | 1.0 | 0.00 | 0.00 | 0.00 | 47 | 1021.3 |
| 20260830212049 | 74 | 346 | 4.0 | 7.0 | 0.00 | 0.00 | 0.00 | 46 | 1020.9 |
| 20260830211544 | 75 | 348 | 6.0 | 8.0 | 0.00 | 0.00 | 0.00 | 46 | 1020.9 |
| 20260830211043 | 75 | 289 | 0.0 | 0.0 | 0.00 | 0.00 | 0.00 | 47 | 1021.3 |
| 20260830210538 | 75 | 259 | 0.0 | 0.0 | 0.00 | 0.00 | 0.00 | 46 | 1021.3 |
| 20260830210032 | 74 | 176 | 1.0 | 3.0 | 0.00 | 0.00 | 0.00 | 47 | 1021.3 |
| 20260830205530 | 74 | 210 | 0.0 | 0.0 | 0.00 | 0.00 | 0.00 | 48 | 1021.3 |
| 20260830205026 | 74 | 231 | 5.0 | 8.0 | 0.00 | 0.00 | 0.00 | 46 | 1021.3 |
| 20260830204524 | 74 | 275 | 5.0 | 7.0 | 0.00 | 0.00 | 0.00 | 47 | 1021.3 |
| 20260830204018 | 73 | 16 | 2.0 | 6.0 | 0.00 | 0.00 | 0.00 | 48 | 1021.3 |
| 20260830203515 | 73 | 309 | 5.0 | 6.0 | 0.00 | 0.00 | 0.00 | 48 | 1021.6 |
| 20260830203009 | 73 | 353 | 1.0 | 2.0 | 0.00 | 0.00 | 0.00 | 48 | 1021.3 |
| 20260830202503 | 73 | 205 | 6.0 | 7.0 | 0.00 | 0.00 | 0.00 | 48 | 1021.6 |
| 20260830201959 | 73 | 222 | 4.0 | 7.0 | 0.00 | 0.00 | 0.00 | 51 | 1021.6 |
| 20260830201458 | 72 | 23 | 4.0 | 5.0 | 0.00 | 0.00 | 0.00 | 52 | 1021.6 |
| 20260830200954 | 72 | 11 | 3.0 | 6.0 | 0.00 | 0.00 | 0.00 | 51 | 1022.0 |
| 20260830200454 | 72 | 336 | 8.0 | 11.0 | 0.00 | 0.00 | 0.00 | 53 | 1022.0 |
| 20260830195954 | 73 | 285 | 3.0 | 5.0 | 0.00 | 0.00 | 0.00 | 52 | 1022.0 |
| 20260830195449 | 72 | 211 | 0.0 | 1.0 | 0.00 | 0.00 | 0.00 | 54 | 1022.0 |
| 20260830194947 | 72 | 188 | 0.0 | 0.0 | 0.00 | 0.00 | 0.00 | 53 | 1022.0 |
| 20260830194447 | 71 | 263 | 3.0 | 3.0 | 0.00 | 0.00 | 0.00 | 53 | 1022.0 |
| 20260830193942 | 71 | 286 | 7.0 | 11.0 | 0.00 | 0.00 | 0.00 | 54 | 1022.3 |
| 20260830193441 | 70 | 22 | 6.0 | 7.0 | 0.00 | 0.00 | 0.00 | 55 | 1022.0 |
| 20260830192936 | 70 | 221 | 2.0 | 3.0 | 0.00 | 0.00 | 0.00 | 55 | 1022.3 |
| 20260830192432 | 71 | 343 | 6.0 | 6.0 | 0.00 | 0.00 | 0.00 | 53 | 1022.3 |
| 20260830191927 | 70 | 357 | 3.0 | 5.0 | 0.00 | 0.00 | 0.00 | 55 | 1022.6 |
| 20260830191426 | 69 | 179 | 3.0 | 5.0 | 0.00 | 0.00 | 0.00 | 56 | 1022.6 |
| 20260830190922 | 69 | 222 | 4.0 | 5.0 | 0.00 | 0.00 | 0.00 | 56 | 1022.6 |
| 20260830190422 | 70 | 170 | 4.0 | 5.0 | 0.00 | 0.00 | 0.00 | 55 | 1022.6 |
| 20260830185922 | 70 | 342 | 3.0 | 5.0 | 0.00 | 0.00 | 0.00 | 55 | 1022.3 |
| 20260830185417 | 70 | 249 | 1.0 | 2.0 | 0.00 | 0.00 | 0.00 | 57 | 1022.6 |
| 20260830184912 | 70 | 199 | 2.0 | 3.0 | 0.00 | 0.00 | 0.00 | 56 | 1023.0 |
| 20260830184411 | 69 | 16 | 5.0 | 7.0 | 0.00 | 0.00 | 0.00 | 56 | 1023.0 |
| 20260830183906 | 70 | 9 | 5.0 | 6.0 | 0.00 | 0.00 | 0.00 | 55 | 1023.0 |
| 20260830183405 | 70 | 164 | 2.0 | 3.0 | 0.00 | 0.00 | 0.00 | 55 | 1023.0 |
| 20260830182901 | 69 | 345 | 1.0 | 3.0 | 0.00 | 0.00 | 0.00 | 56 | 1023.0 |
| 20260830182357 | 70 | 288 | 3.0 | 5.0 | 0.00 | 0.00 | 0.00 | 57 | 1023.0 |
| 20260830181854 | 70 | 177 | 1.0 | 1.0 | 0.00 | 0.00 | 0.00 | 57 | 1023.0 |
| 20260830181349 | 68 | 215 | 0.0 | 0.0 | 0.00 | 0.00 | 0.00 | 58 | 1023.0 |
| 20260830180848 | 67 | 207 | 2.0 | 3.0 | 0.00 | 0.00 | 0.00 | 62 | 1023.0 |
| 20260830180342 | 66 | 134 | 2.0 | 2.0 | 0.00 | 0.00 | 0.00 | 66 | 1023.0 |
| 20260830175841 | 66 | 18 | 3.0 | 3.0 | 0.00 | 0.00 | 0.00 | 65 | 1023.3 |
| 20260830175336 | 65 | 238 | 2.0 | 3.0 | 0.00 | 0.00 | 0.00 | 65 | 1023.0 |
| 20260830174831 | 65 | 12 | 4.0 | 6.0 | 0.00 | 0.00 | 0.00 | 68 | 1023.0 |
| 20260830174327 | 65 | 272 | 4.0 | 6.0 | 0.00 | 0.00 | 0.00 | 67 | 1023.0 |
| 20260830173827 | 65 | 326 | 4.0 | 7.0 | 0.00 | 0.00 | 0.00 | 68 | 1023.0 |
| 20260830173322 | 64 | 220 | 3.0 | 5.0 | 0.00 | 0.00 | 0.00 | 70 | 1023.0 |
| 20260830172819 | 64 | 355 | 7.0 | 10.0 | 0.00 | 0.00 | 0.00 | 70 | 1023.3 |
| 20260830172315 | 64 | 22 | 3.0 | 5.0 | 0.00 | 0.00 | 0.00 | 71 | 1023.0 |
| 20260830171810 | 63 | 215 | 0.0 | 1.0 | 0.00 | 0.00 | 0.00 | 73 | 1023.3 |
| 20260830171306 | 62 | 18 | 3.0 | 6.0 | 0.00 | 0.00 | 0.00 | 74 | 1023.0 |
| 20260830170800 | 62 | 354 | 4.0 | 6.0 | 0.00 | 0.00 | 0.00 | 75 | 1023.0 |
| 20260830170300 | 61 | 273 | 5.0 | 6.0 | 0.00 | 0.00 | 0.00 | 76 | 1023.3 |
| 20260830165758 | 61 | 242 | 2.0 | 2.0 | 0.00 | 0.00 | 0.00 | 77 | 1023.0 |
| 20260830165255 | 61 | 249 | 5.0 | 7.0 | 0.00 | 0.00 | 0.00 | 77 | 1023.0 |
| 20260830164751 | 60 | 20 | 3.0 | 5.0 | 0.00 | 0.00 | 0.00 | 79 | 1023.3 |
| 20260830164246 | 59 | 347 | 2.0 | 3.0 | 0.00 | 0.00 | 0.00 | 80 | 1023.3 |
| 20260830163743 | 59 | 19 | 4.0 | 5.0 | 0.00 | 0.00 | 0.00 | 81 | 1023.3 |
| 20260830163238 | 59 | 352 | 5.0 | 7.0 | 0.00 | 0.00 | 0.00 | 81 | 1023.3 |
| 20260830162732 | 59 | 204 | 1.0 | 2.0 | 0.00 | 0.00 | 0.00 | 82 | 1023.3 |
| 20260830162229 | 58 | 225 | 3.0 | 3.0 | 0.00 | 0.00 | 0.00 | 82 | 1023.3 |
| 20260830161724 | 58 | 261 | 2.0 | 2.0 | 0.00 | 0.00 | 0.00 | 83 | 1023.0 |
| 20260830161218 | 58 | 206 | 0.0 | 1.0 | 0.00 | 0.00 | 0.00 | 83 | 1023.3 |
| 20260830160714 | 57 | 226 | 1.0 | 1.0 | 0.00 | 0.00 | 0.00 | 84 | 1023.7 |
| 20260830160208 | 57 | 222 | 1.0 | 2.0 | 0.00 | 0.00 | 0.00 | 85 | 1023.3 |
| 20260830155705 | 57 | 208 | 0.0 | 0.0 | 0.00 | 0.00 | 0.00 | 86 | 1023.3 |
| 20260830155200 | 56 | 218 | 1.0 | 1.0 | 0.00 | 0.00 | 0.00 | 86 | 1023.7 |
| 20260830154656 | 56 | 209 | 1.0 | 2.0 | 0.00 | 0.00 | 0.00 | 87 | 1023.3 |
| 20260830154151 | 56 | 250 | 1.0 | 2.0 | 0.00 | 0.00 | 0.00 | 87 | 1023.3 |
| 20260830153648 | 56 | 225 | 0.0 | 0.0 | 0.00 | 0.00 | 0.00 | 89 | 1023.3 |
| 20260830153148 | 55 | 204 | 1.0 | 1.0 | 0.00 | 0.00 | 0.00 | 90 | 1023.3 |
| 20260830152646 | 55 | 224 | 1.0 | 1.0 | 0.00 | 0.00 | 0.00 | 91 | 1023.7 |
| 20260830152141 | 55 | 216 | 0.0 | 0.0 | 0.00 | 0.00 | 0.00 | 93 | 1023.3 |
| 20260830151636 | 54 | 276 | 2.0 | 2.0 | 0.00 | 0.00 | 0.00 | 94 | 1023.7 |
| 20260830151135 | 53 | 223 | 0.0 | 0.0 | 0.00 | 0.00 | 0.00 | 95 | 1023.7 |
| 20260830150630 | 53 | 273 | 3.0 | 3.0 | 0.00 | 0.00 | 0.00 | 96 | 1024.0 |
| 20260830150125 | 52 | 239 | 2.0 | 2.0 | 0.00 | 0.00 | 0.00 | 96 | 1023.7 |
| 20260830145624 | 52 | 229 | 0.0 | 0.0 | 0.00 | 0.00 | 0.00 | 97 | 1023.7 |
| 20260830145119 | 52 | 233 | 0.0 | 0.0 | 0.00 | 0.00 | 0.00 | 97 | 1023.7 |
| 20260830144615 | 51 | 231 | 0.0 | 0.0 | 0.00 | 0.00 | 0.00 | 97 | 1023.7 |
| 20260830144110 | 51 | 233 | 0.0 | 0.0 | 0.00 | 0.00 | 0.00 | 98 | 1023.7 |
| 20260830143606 | 51 | 206 | 0.0 | 0.0 | 0.00 | 0.00 | 0.00 | 98 | 1023.7 |
| 20260830143104 | 51 | 225 | 0.0 | 0.0 | 0.00 | 0.00 | 0.00 | 98 | 1023.7 |
| 20260830142600 | 50 | 223 | 0.0 | 0.0 | 0.00 | 0.00 | 0.00 | 98 | 1023.7 |
| 20260830142054 | 50 | 222 | 0.0 | 0.0 | 0.00 | 0.00 | 0.00 | 98 | 1023.7 |
| 20260830141550 | 49 | 222 | 0.0 | 0.0 | 0.00 | 0.00 | 0.00 | 98 | 1023.7 |
| 20260830141045 | 49 | 217 | 0.0 | 0.0 | 0.00 | 0.00 | 0.00 | 98 | 1023.7 |
| 20260830140544 | 48 | 212 | 0.0 | 0.0 | 0.00 | 0.00 | 0.00 | 98 | 1023.7 |
| 20260830140040 | 48 | 212 | 0.0 | 0.0 | 0.00 | 0.00 | 0.00 | 98 | 1023.7 |
| 20260830135535 | 48 | 213 | 0.0 | 0.0 | 0.00 | 0.00 | 0.00 | 98 | 1023.7 |
| 20260830135030 | 48 | 214 | 0.0 | 0.0 | 0.00 | 0.00 | 0.00 | 98 | 1023.3 |
| 20260830134526 | 48 | 214 | 0.0 | 0.0 | 0.00 | 0.00 | 0.00 | 98 | 1023.7 |
| 20260830134021 | 48 | 214 | 0.0 | 0.0 | 0.00 | 0.00 | 0.00 | 97 | 1023.7 |
| 20260830133517 | 48 | 211 | 0.0 | 0.0 | 0.00 | 0.00 | 0.00 | 97 | 1023.7 |
| 20260830133012 | 48 | 210 | 0.0 | 0.0 | 0.00 | 0.00 | 0.00 | 97 | 1023.7 |
| 20260830132508 | 48 | 209 | 0.0 | 0.0 | 0.00 | 0.00 | 0.00 | 97 | 1023.3 |
| 20260830132008 | 48 | 209 | 0.0 | 0.0 | 0.00 | 0.00 | 0.00 | 97 | 1023.3 |
| 20260830131501 | 48 | 210 | 0.0 | 0.0 | 0.00 | 0.00 | 0.00 | 97 | 1023.3 |
| 20260830130956 | 48 | 208 | 0.0 | 0.0 | 0.00 | 0.00 | 0.00 | 97 | 1023.3 |
| 20260830130451 | 48 | 213 | 0.0 | 0.0 | 0.00 | 0.00 | 0.00 | 97 | 1023.3 |
| 20260830125949 | 48 | 211 | 0.0 | 0.0 | 0.00 | 0.00 | 0.00 | 97 | 1023.3 |
| 20260830125440 | 48 | 215 | 0.0 | 0.0 | 0.00 | 0.00 | 0.00 | 97 | 1023.3 |
| 20260830124938 | 48 | 212 | 0.0 | 0.0 | 0.00 | 0.00 | 0.00 | 97 | 1023.3 |
| 20260830124433 | 49 | 212 | 0.0 | 0.0 | 0.00 | 0.00 | 0.00 | 97 | 1023.3 |
| 20260830123930 | 49 | 213 | 0.0 | 0.0 | 0.00 | 0.00 | 0.00 | 97 | 1023.0 |
| 20260830123426 | 49 | 212 | 0.0 | 0.0 | 0.00 | 0.00 | 0.00 | 97 | 1023.0 |
| 20260830122924 | 49 | 214 | 0.0 | 0.0 | 0.00 | 0.00 | 0.00 | 97 | 1023.0 |
| 20260830122423 | 49 | 214 | 0.0 | 0.0 | 0.00 | 0.00 | 0.00 | 96 | 1023.0 |
| 20260830121918 | 49 | 214 | 0.0 | 0.0 | 0.00 | 0.00 | 0.00 | 96 | 1023.0 |
| 20260830121413 | 49 | 213 | 0.0 | 0.0 | 0.00 | 0.00 | 0.00 | 96 | 1023.0 |
| 20260830120908 | 49 | 213 | 0.0 | 0.0 | 0.00 | 0.00 | 0.00 | 96 | 1023.3 |
| 20260830120403 | 49 | 215 | 0.0 | 0.0 | 0.00 | 0.00 | 0.00 | 96 | 1023.3 |
| 20260830115859 | 49 | 212 | 0.0 | 0.0 | 0.00 | 0.00 | 0.00 | 96 | 1023.0 |
| 20260830115355 | 50 | 215 | 0.0 | 0.0 | 0.00 | 0.00 | 0.00 | 96 | 1023.3 |
| 20260830114850 | 50 | 215 | 0.0 | 0.0 | 0.00 | 0.00 | 0.00 | 95 | 1023.0 |
| 20260830114347 | 50 | 219 | 0.0 | 0.0 | 0.00 | 0.00 | 0.00 | 95 | 1023.0 |
| 20260830113843 | 50 | 217 | 0.0 | 0.0 | 0.00 | 0.00 | 0.00 | 95 | 1023.0 |
| 20260830113342 | 50 | 215 | 0.0 | 0.0 | 0.00 | 0.00 | 0.00 | 95 | 1023.0 |
| 20260830112838 | 50 | 216 | 0.0 | 0.0 | 0.00 | 0.00 | 0.00 | 95 | 1023.0 |
| 20260830112334 | 49 | 213 | 0.0 | 0.0 | 0.00 | 0.00 | 0.00 | 95 | 1023.0 |
| 20260830111830 | 49 | 212 | 0.0 | 0.0 | 0.00 | 0.00 | 0.00 | 94 | 1023.0 |